ENY3540 KOKC-KMIA

Flight info

Callsign ENY3540
Flight time N/A
Altitude 31000
Route TEBRD3 ATOKA J20 EIC SWB HRV Q105 BLVNS Y290 GAWKS FROGZ5
Aircraft E75L/M-SDE3GILORVW/S

Departure

Time 2026-04-16 03:37
Airport OKC Will Rogers World Airport (KOKC)

Arrival

Time N/A
Airport Miami International Airport (KMIA)
Time Latitude Longitude Altitude Speed Heading
2026-04-16 03:13 35.39481 -97.59849 1295 ft 0 kts 360°
2026-04-16 03:28 35.39477 -97.59849 1295 ft 2 kts
2026-04-16 03:28 35.39461 -97.59849 1295 ft 2 kts
2026-04-16 03:29 35.39444 -97.59849 1295 ft 2 kts 354°
2026-04-16 03:29 35.39430 -97.59839 1295 ft 2 kts 305°
2026-04-16 03:29 35.39424 -97.59820 1295 ft 2 kts 282°
2026-04-16 03:29 35.39422 -97.59805 1295 ft 1 kts 273°
2026-04-16 03:30 35.39422 -97.59803 1295 ft 0 kts 272°
2026-04-16 03:34 35.39445 -97.60011 1293 ft 8 kts 280°
2026-04-16 03:34 35.39416 -97.60068 1291 ft 10 kts 255°
2026-04-16 03:34 35.39467 -97.60150 1289 ft 16 kts 317°
2026-04-16 03:34 35.39553 -97.60250 1288 ft 18 kts 316°
2026-04-16 03:35 35.39647 -97.60362 1286 ft 20 kts 320°
2026-04-16 03:35 35.39784 -97.60401 1286 ft 21 kts 359°
2026-04-16 03:35 35.39935 -97.60401 1288 ft 22 kts
2026-04-16 03:35 35.40086 -97.60401 1291 ft 22 kts 360°
2026-04-16 03:36 35.40239 -97.60402 1294 ft 22 kts
2026-04-16 03:36 35.40392 -97.60401 1295 ft 23 kts
2026-04-16 03:36 35.40546 -97.60409 1295 ft 21 kts 337°
2026-04-16 03:36 35.40570 -97.60559 1295 ft 15 kts 237°
2026-04-16 03:37 35.40441 -97.60573 1294 ft 46 kts 180°
2026-04-16 03:37 35.39848 -97.60573 1288 ft 124 kts 179°
2026-04-16 03:37 35.38779 -97.60574 1518 ft 172 kts 180°
2026-04-16 03:37 35.37530 -97.60588 2426 ft 184 kts 181°
2026-04-16 03:38 35.36247 -97.60565 3599 ft 188 kts 183°
2026-04-16 03:38 35.34874 -97.60549 4225 ft 209 kts 182°
2026-04-16 03:38 35.33361 -97.60510 4861 ft 225 kts 178°
2026-04-16 03:38 35.31847 -97.59763 5527 ft 253 kts 144°
2026-04-16 03:39 35.30676 -97.58045 6229 ft 273 kts 127°
2026-04-16 03:39 35.29632 -97.56033 6919 ft 287 kts 123°
2026-04-16 03:39 35.28611 -97.53845 7707 ft 294 kts 123°
2026-04-16 03:39 35.27570 -97.51681 8506 ft 298 kts 124°
2026-04-16 03:40 35.26514 -97.49505 9249 ft 302 kts 124°
2026-04-16 03:40 35.25419 -97.47250 9944 ft 306 kts 123°
2026-04-16 03:40 35.24312 -97.44965 10346 ft 320 kts 124°
2026-04-16 03:40 35.23150 -97.42573 10730 ft 333 kts 124°
2026-04-16 03:41 35.21960 -97.40118 11363 ft 336 kts 124°
2026-04-16 03:41 35.20759 -97.37647 12045 ft 340 kts 124°
2026-04-16 03:41 35.19547 -97.35155 12743 ft 343 kts 124°
2026-04-16 03:41 35.18324 -97.32641 13459 ft 346 kts 124°
2026-04-16 03:42 35.17085 -97.30097 14133 ft 349 kts 125°
2026-04-16 03:42 35.15837 -97.27535 14801 ft 352 kts 125°
2026-04-16 03:42 35.14577 -97.24951 15487 ft 356 kts 126°
2026-04-16 03:42 35.13304 -97.22342 16148 ft 359 kts 126°
2026-04-16 03:43 35.12018 -97.19709 16813 ft 362 kts 127°
2026-04-16 03:43 35.10717 -97.17048 17461 ft 366 kts 127°
2026-04-16 03:43 35.09406 -97.14369 18117 ft 370 kts 127°
2026-04-16 03:43 35.08078 -97.11653 18712 ft 374 kts 128°
2026-04-16 03:44 35.06720 -97.08881 19334 ft 377 kts 128°
2026-04-16 03:44 35.05330 -97.06168 19969 ft 377 kts 133°
2026-04-16 03:44 35.03663 -97.03733 20596 ft 374 kts 139°
2026-04-16 03:44 35.01929 -97.01347 21251 ft 377 kts 140°
2026-04-16 03:45 35.00161 -96.98967 21868 ft 380 kts 141°
2026-04-16 03:45 34.98371 -96.96566 22484 ft 384 kts 141°
2026-04-16 03:45 34.96569 -96.94150 23092 ft 387 kts 141°
2026-04-16 03:45 34.94752 -96.91717 23643 ft 390 kts 141°
2026-04-16 03:46 34.92921 -96.89264 24165 ft 392 kts 142°
2026-04-16 03:46 34.91078 -96.86796 24702 ft 393 kts 142°
2026-04-16 03:46 34.89233 -96.84328 25246 ft 395 kts 142°
2026-04-16 03:46 34.87383 -96.81856 25781 ft 397 kts 142°
2026-04-16 03:47 34.85515 -96.79361 26305 ft 399 kts 142°
2026-04-16 03:47 34.83643 -96.76861 26818 ft 401 kts 142°
2026-04-16 03:47 34.81756 -96.74343 27319 ft 403 kts 142°
2026-04-16 03:47 34.79862 -96.71819 27787 ft 405 kts 142°
2026-04-16 03:48 34.77957 -96.69280 28247 ft 407 kts 142°
2026-04-16 03:48 34.76047 -96.66739 28682 ft 409 kts 142°
2026-04-16 03:48 34.74127 -96.64183 29112 ft 410 kts 142°
2026-04-16 03:48 34.72198 -96.61619 29533 ft 412 kts 142°
2026-04-16 03:49 34.70226 -96.59001 29872 ft 416 kts 142°
2026-04-16 03:49 34.68252 -96.56383 30051 ft 422 kts 142°
2026-04-16 03:49 34.66273 -96.53752 30436 ft 422 kts 142°
2026-04-16 03:49 34.64286 -96.51119 30778 ft 423 kts 143°
2026-04-16 03:50 34.62397 -96.48404 30858 ft 420 kts 141°
2026-04-16 03:50 34.58523 -96.43011 30928 ft 434 kts 139°
2026-04-16 03:51 34.54628 -96.37206 30925 ft 453 kts 139°
2026-04-16 03:51 34.50677 -96.31284 30908 ft 449 kts 139°
2026-04-16 03:52 34.47405 -96.26399 30923 ft 449 kts 139°
2026-04-16 03:52 34.43269 -96.20823 30919 ft 436 kts 148°
2026-04-16 03:53 34.38554 -96.16196 30932 ft 432 kts 152°
2026-04-16 03:53 34.33787 -96.11768 30925 ft 432 kts 152°
2026-04-16 03:54 34.28975 -96.07469 30937 ft 428 kts 155°
2026-04-16 03:54 34.23989 -96.03562 30934 ft 426 kts 157°
2026-04-16 03:55 34.18965 -95.99752 30938 ft 426 kts 157°
2026-04-16 03:55 34.13927 -95.95962 30936 ft 427 kts 157°
2026-04-16 03:56 34.08845 -95.92146 30961 ft 427 kts 157°
2026-04-16 03:56 34.03792 -95.88353 30969 ft 428 kts 157°
2026-04-16 03:57 33.98733 -95.84559 30990 ft 428 kts 157°
2026-04-16 03:57 33.93664 -95.80761 30989 ft 429 kts 157°
2026-04-16 03:58 33.88594 -95.76963 30998 ft 430 kts 157°
2026-04-16 03:58 33.83578 -95.72996 30984 ft 439 kts 149°
2026-04-16 03:58 33.81373 -95.70408 30987 ft 452 kts 140°
2026-04-16 03:59 33.79498 -95.67317 30998 ft 464 kts 131°
2026-04-16 03:59 33.76328 -95.60501 31007 ft 468 kts 127°
2026-04-16 04:00 33.73245 -95.53562 31031 ft 468 kts 127°
2026-04-16 04:00 33.70179 -95.46674 31039 ft 467 kts 127°
2026-04-16 04:01 33.66981 -95.39905 31035 ft 461 kts 132°
2026-04-16 04:01 33.63457 -95.33468 31039 ft 462 kts 133°
2026-04-16 04:02 33.59908 -95.27066 31025 ft 460 kts 133°
2026-04-16 04:02 33.56353 -95.20677 30998 ft 461 kts 133°
2026-04-16 04:03 33.52796 -95.14293 30992 ft 461 kts 133°
2026-04-16 04:03 33.49233 -95.07906 30968 ft 461 kts 133°
2026-04-16 04:04 33.45660 -95.01513 30974 ft 461 kts 133°
2026-04-16 04:04 33.42064 -94.95089 30972 ft 461 kts 132°
2026-04-16 04:05 33.38511 -94.88754 30982 ft 461 kts 132°
2026-04-16 04:05 33.34911 -94.82345 30989 ft 461 kts 132°
2026-04-16 04:06 33.31339 -94.75999 30984 ft 460 kts 131°
2026-04-16 04:06 33.27762 -94.69653 30998 ft 460 kts 131°
2026-04-16 04:07 33.24177 -94.63304 30973 ft 461 kts 131°
2026-04-16 04:07 33.18766 -94.53742 30972 ft 465 kts 131°
2026-04-16 04:08 33.15122 -94.47318 31006 ft 468 kts 131°
2026-04-16 04:08 33.11460 -94.40871 31013 ft 471 kts 130°
2026-04-16 04:09 33.07779 -94.34404 31039 ft 474 kts 130°
2026-04-16 04:09 33.04081 -94.27916 31041 ft 475 kts 130°
2026-04-16 04:10 33.00345 -94.21375 31040 ft 477 kts 130°
2026-04-16 04:10 32.96579 -94.14792 31036 ft 477 kts 130°
2026-04-16 04:11 32.92834 -94.08258 31015 ft 477 kts 131°
2026-04-16 04:11 32.89091 -94.01739 31010 ft 477 kts 131°
2026-04-16 04:12 32.85375 -93.95277 30995 ft 478 kts 131°
2026-04-16 04:12 32.81592 -93.88713 30998 ft 477 kts 131°
2026-04-16 04:13 32.77839 -93.82209 31015 ft 477 kts 131°
2026-04-16 04:13 32.73759 -93.76123 31026 ft 473 kts 136°
2026-04-16 04:14 32.69550 -93.70069 31029 ft 473 kts 136°
2026-04-16 04:14 32.65357 -93.64053 31031 ft 473 kts 136°
2026-04-16 04:15 32.61131 -93.57997 31029 ft 473 kts 136°
2026-04-16 04:15 32.56927 -93.51982 31024 ft 474 kts 136°
2026-04-16 04:16 32.52720 -93.45971 31023 ft 474 kts 136°
2026-04-16 04:16 32.48504 -93.39958 31041 ft 474 kts 136°
2026-04-16 04:17 32.44286 -93.33950 31035 ft 475 kts 136°
2026-04-16 04:17 32.40062 -93.27944 31038 ft 475 kts 136°
2026-04-16 04:18 32.35830 -93.21937 31041 ft 475 kts 136°
2026-04-16 04:18 32.32282 -93.16908 31039 ft 475 kts 136°
2026-04-16 04:19 32.28046 -93.10913 31034 ft 475 kts 136°
2026-04-16 04:19 32.23803 -93.04917 31041 ft 475 kts 136°
2026-04-16 04:20 32.19561 -92.98933 31048 ft 475 kts 136°
2026-04-16 04:20 32.15310 -92.92945 31052 ft 475 kts 136°
2026-04-16 04:21 32.11061 -92.86969 31051 ft 475 kts 136°
2026-04-16 04:21 32.06786 -92.80967 31058 ft 475 kts 136°
2026-04-16 04:22 32.02532 -92.75004 31061 ft 475 kts 136°
2026-04-16 04:22 31.98318 -92.69055 31060 ft 474 kts 137°
2026-04-16 04:23 31.93902 -92.63242 31068 ft 473 kts 138°
2026-04-16 04:23 31.89488 -92.57495 31063 ft 473 kts 138°
2026-04-16 04:24 31.85071 -92.51754 31079 ft 473 kts 138°
2026-04-16 04:24 31.80650 -92.46013 31067 ft 473 kts 138°
2026-04-16 04:25 31.76228 -92.40280 31083 ft 474 kts 138°
2026-04-16 04:25 31.71802 -92.34549 31076 ft 474 kts 138°
2026-04-16 04:26 31.67370 -92.28819 31081 ft 474 kts 138°
2026-04-16 04:26 31.62930 -92.23089 31069 ft 474 kts 138°
2026-04-16 04:27 31.58468 -92.17339 31067 ft 474 kts 138°
2026-04-16 04:27 31.54020 -92.11614 31076 ft 474 kts 138°
2026-04-16 04:28 31.49568 -92.05895 31075 ft 475 kts 137°
2026-04-16 04:28 31.45114 -92.00180 31078 ft 475 kts 137°
2026-04-16 04:29 31.40652 -91.94464 31081 ft 475 kts 137°
2026-04-16 04:29 31.36191 -91.88759 31082 ft 475 kts 137°
2026-04-16 04:30 31.31699 -91.83023 31090 ft 475 kts 137°
2026-04-16 04:30 31.27226 -91.77319 31093 ft 475 kts 137°
2026-04-16 04:31 31.22758 -91.71631 31095 ft 475 kts 137°
2026-04-16 04:31 31.18250 -91.65900 31093 ft 475 kts 137°
2026-04-16 04:32 31.13844 -91.60307 31099 ft 475 kts 137°
2026-04-16 04:32 31.09294 -91.54539 31094 ft 475 kts 137°
2026-04-16 04:33 31.04787 -91.48836 31102 ft 475 kts 137°
2026-04-16 04:33 31.00314 -91.43183 31109 ft 475 kts 137°
2026-04-16 04:34 30.95831 -91.37527 31108 ft 475 kts 137°
2026-04-16 04:34 30.91347 -91.31877 31113 ft 474 kts 137°
2026-04-16 04:35 30.86871 -91.26246 31115 ft 474 kts 137°
2026-04-16 04:35 30.82389 -91.20617 31113 ft 474 kts 137°
2026-04-16 04:36 30.77909 -91.14998 31130 ft 474 kts 137°
2026-04-16 04:36 30.73422 -91.09377 31129 ft 474 kts 137°
2026-04-16 04:37 30.68934 -91.03764 31134 ft 474 kts 137°
2026-04-16 04:37 30.64410 -90.98114 31132 ft 474 kts 137°
2026-04-16 04:38 30.59918 -90.92513 31132 ft 474 kts 136°
2026-04-16 04:38 30.55418 -90.86911 31127 ft 474 kts 136°
2026-04-16 04:39 30.50917 -90.81314 31129 ft 474 kts 136°
2026-04-16 04:39 30.46474 -90.75798 31129 ft 474 kts 136°
2026-04-16 04:40 30.41936 -90.70172 31136 ft 474 kts 136°
2026-04-16 04:40 30.37458 -90.64628 31137 ft 474 kts 136°
2026-04-16 04:41 30.32922 -90.59022 31141 ft 474 kts 136°
2026-04-16 04:41 30.28414 -90.53456 31142 ft 474 kts 136°
2026-04-16 04:42 30.23901 -90.47894 31148 ft 474 kts 136°
2026-04-16 04:42 30.19387 -90.42338 31149 ft 474 kts 136°
2026-04-16 04:43 30.14874 -90.36791 31144 ft 474 kts 136°
2026-04-16 04:43 30.10357 -90.31248 31146 ft 473 kts 136°
2026-04-16 04:44 30.06568 -90.26605 31149 ft 474 kts 136°
2026-04-16 04:44 30.01320 -90.20180 31149 ft 474 kts 136°
2026-04-16 04:45 29.97530 -90.15549 31148 ft 473 kts 136°
2026-04-16 04:45 29.93007 -90.10029 31156 ft 474 kts 136°
2026-04-16 04:46 29.88484 -90.04516 31156 ft 473 kts 136°
2026-04-16 04:46 29.84036 -89.98921 31160 ft 475 kts 133°
2026-04-16 04:47 29.79755 -89.93118 31155 ft 475 kts 133°
2026-04-16 04:47 29.75493 -89.87301 31157 ft 475 kts 133°
2026-04-16 04:48 29.71199 -89.81452 31147 ft 475 kts 133°
2026-04-16 04:48 29.66961 -89.75687 31148 ft 475 kts 133°
2026-04-16 04:49 29.62690 -89.69887 31142 ft 475 kts 133°
2026-04-16 04:49 29.58394 -89.64061 31149 ft 475 kts 132°
2026-04-16 04:50 29.54122 -89.58278 31148 ft 475 kts 132°
2026-04-16 04:50 29.49840 -89.52488 31149 ft 475 kts 132°
2026-04-16 04:51 29.45559 -89.46709 31147 ft 475 kts 132°
2026-04-16 04:51 29.41281 -89.40941 31150 ft 475 kts 132°
2026-04-16 04:52 29.37000 -89.35177 31149 ft 474 kts 132°
2026-04-16 04:52 29.32716 -89.29419 31155 ft 475 kts 132°
2026-04-16 04:53 29.28431 -89.23666 31155 ft 474 kts 132°
2026-04-16 04:53 29.24147 -89.17923 31160 ft 474 kts 132°
2026-04-16 04:54 29.19861 -89.12186 31153 ft 474 kts 132°
2026-04-16 04:54 29.15547 -89.06419 31154 ft 474 kts 132°
2026-04-16 04:55 29.11258 -89.00694 31163 ft 474 kts 132°
2026-04-16 04:55 29.06967 -88.94974 31153 ft 473 kts 132°
2026-04-16 04:56 29.02678 -88.89265 31152 ft 473 kts 132°
2026-04-16 04:56 28.98386 -88.83559 31155 ft 473 kts 132°
2026-04-16 04:57 28.94097 -88.77866 31159 ft 473 kts 132°
2026-04-16 04:57 28.89731 -88.72114 31155 ft 473 kts 132°
2026-04-16 04:58 28.85467 -88.66382 31154 ft 473 kts 131°
2026-04-16 04:58 28.81197 -88.60648 31156 ft 474 kts 131°
2026-04-16 04:59 28.76926 -88.54923 31149 ft 474 kts 131°
2026-04-16 04:59 28.72663 -88.49217 31160 ft 474 kts 131°
2026-04-16 05:00 28.68383 -88.43496 31147 ft 474 kts 131°
2026-04-16 05:00 28.64108 -88.37791 31156 ft 474 kts 131°
2026-04-16 05:01 28.59838 -88.32082 31160 ft 474 kts 132°
2026-04-16 05:01 28.55512 -88.26344 31153 ft 474 kts 131°
2026-04-16 05:02 28.51226 -88.20647 31164 ft 473 kts 131°
2026-04-16 05:02 28.46983 -88.15015 31156 ft 473 kts 131°
2026-04-16 05:03 28.42655 -88.09276 31152 ft 473 kts 131°
2026-04-16 05:04 28.37250 -87.99964 31160 ft 475 kts 111°
2026-04-16 05:04 28.35159 -87.92762 31160 ft 476 kts 108°
2026-04-16 05:05 28.33104 -87.85636 31159 ft 475 kts 108°
2026-04-16 05:05 28.31020 -87.78433 31158 ft 475 kts 108°
2026-04-16 05:06 28.28948 -87.71285 31161 ft 475 kts 108°
2026-04-16 05:06 28.27236 -87.65392 31154 ft 475 kts 108°
2026-04-16 05:07 28.25142 -87.58196 31153 ft 475 kts 108°
2026-04-16 05:07 28.23067 -87.51085 31152 ft 475 kts 108°
2026-04-16 05:08 28.20974 -87.43925 31158 ft 475 kts 108°
2026-04-16 05:08 28.18890 -87.36814 31156 ft 475 kts 108°
2026-04-16 05:09 28.16800 -87.29692 31161 ft 475 kts 108°
2026-04-16 05:09 28.14706 -87.22578 31159 ft 475 kts 108°
2026-04-16 05:10 28.12620 -87.15502 31157 ft 475 kts 108°
2026-04-16 05:10 28.10512 -87.08367 31157 ft 475 kts 109°
2026-04-16 05:11 28.08411 -87.01275 31159 ft 475 kts 108°
2026-04-16 05:11 28.06307 -86.94183 31161 ft 475 kts 109°
2026-04-16 05:12 28.04184 -86.87043 31169 ft 475 kts 109°
2026-04-16 05:12 28.02075 -86.80001 31162 ft 475 kts 109°
2026-04-16 05:13 27.99982 -86.72850 31166 ft 475 kts 108°
2026-04-16 05:13 27.97927 -86.65735 31170 ft 476 kts 108°
2026-04-16 05:14 27.95866 -86.58619 31169 ft 476 kts 108°
2026-04-16 05:14 27.93801 -86.51503 31169 ft 476 kts 108°
2026-04-16 05:15 27.91735 -86.44397 31173 ft 476 kts 108°
2026-04-16 05:15 27.89661 -86.37285 31168 ft 476 kts 108°
2026-04-16 05:16 27.87585 -86.30177 31168 ft 476 kts 108°
2026-04-16 05:16 27.85503 -86.23066 31171 ft 477 kts 108°
2026-04-16 05:17 27.83420 -86.15949 31125 ft 481 kts 109°
2026-04-16 05:17 27.81276 -86.08678 31168 ft 489 kts 109°
2026-04-16 05:18 27.79123 -86.01369 31163 ft 487 kts 109°
2026-04-16 05:18 27.76984 -85.94123 31166 ft 486 kts 109°
2026-04-16 05:19 27.74839 -85.86875 31168 ft 486 kts 109°
2026-04-16 05:19 27.72694 -85.79642 31179 ft 486 kts 109°
2026-04-16 05:20 27.70542 -85.72403 31178 ft 486 kts 109°
2026-04-16 05:20 27.68392 -85.65186 31172 ft 486 kts 109°
2026-04-16 05:21 27.66238 -85.57967 31174 ft 485 kts 109°
2026-04-16 05:21 27.64082 -85.50758 31168 ft 485 kts 109°
2026-04-16 05:22 27.61921 -85.43551 31169 ft 484 kts 109°
2026-04-16 05:22 27.59776 -85.36353 31169 ft 484 kts 108°
2026-04-16 05:23 27.58230 -85.28925 31177 ft 484 kts 101°
2026-04-16 05:23 27.56931 -85.21486 31169 ft 484 kts 101°
2026-04-16 05:24 27.55636 -85.14045 31162 ft 483 kts 101°
2026-04-16 05:24 27.54337 -85.06611 31168 ft 483 kts 101°
2026-04-16 05:25 27.53036 -84.99191 31166 ft 483 kts 101°
2026-04-16 05:25 27.51731 -84.91778 31171 ft 483 kts 101°
2026-04-16 05:26 27.50420 -84.84361 31171 ft 482 kts 101°
2026-04-16 05:26 27.49108 -84.76952 31171 ft 482 kts 101°
2026-04-16 05:27 27.47822 -84.69720 31168 ft 482 kts 101°
2026-04-16 05:27 27.46501 -84.62316 31175 ft 482 kts 101°
2026-04-16 05:28 27.45176 -84.54916 31174 ft 482 kts 101°
2026-04-16 05:28 27.43840 -84.47471 31174 ft 482 kts 101°
2026-04-16 05:29 27.42509 -84.40079 31173 ft 482 kts 101°
2026-04-16 05:29 27.41172 -84.32681 31166 ft 482 kts 101°
2026-04-16 05:30 27.39833 -84.25294 31169 ft 482 kts 101°
2026-04-16 05:30 27.38491 -84.17913 31171 ft 482 kts 101°
2026-04-16 05:31 27.37142 -84.10520 31177 ft 482 kts 101°
2026-04-16 05:31 27.35791 -84.03134 31175 ft 482 kts 101°
2026-04-16 05:32 27.34437 -83.95760 31178 ft 482 kts 101°
2026-04-16 05:32 27.33299 -83.89577 31178 ft 482 kts 101°
2026-04-16 05:33 27.31716 -83.80999 31175 ft 482 kts 101°
2026-04-16 05:33 27.30571 -83.74820 31171 ft 482 kts 101°
2026-04-16 05:34 27.29206 -83.67470 31171 ft 482 kts 101°
2026-04-16 05:34 27.27832 -83.60099 31178 ft 482 kts 101°
2026-04-16 05:35 27.26453 -83.52721 31174 ft 481 kts 100°
2026-04-16 05:35 27.25073 -83.45358 31174 ft 482 kts 100°
2026-04-16 05:36 27.23688 -83.37991 31176 ft 481 kts 100°
2026-04-16 05:36 27.22300 -83.30633 31177 ft 481 kts 100°
2026-04-16 05:37 27.20907 -83.23267 31179 ft 481 kts 100°
2026-04-16 05:37 27.19512 -83.15915 31174 ft 481 kts 100°
2026-04-16 05:38 27.18054 -83.08585 31177 ft 480 kts 98°
2026-04-16 05:38 27.16713 -83.01221 31174 ft 481 kts 100°
2026-04-16 05:39 27.15523 -82.95002 31173 ft 481 kts 100°
2026-04-16 05:39 27.14082 -82.87628 31165 ft 481 kts 103°